Date,TemperatureHighF,TemperatureAvgF,TemperatureLowF,DewpointHighF,DewpointAvgF,DewpointLowF,HumidityHigh,HumidityAvg,HumidityLow,PressureMaxIn,PressureMinIn,WindSpeedMaxMPH,WindSpeedAvgMPH,GustSpeedMaxMPH,PrecipitationSumIn
2013-1-1,24.1,18.2,8.4,18.8,12.8,1.7,86,79,69,29.83,29.69,0,0,0,0.00
2013-1-2,33.1,19.6,7.5,25.5,13.8,2.2,86,78,68,29.80,29.65,0,0,0,0.01
2013-1-3,34.9,21.0,9.0,26.7,15.4,4.7,88,79,70,29.97,29.80,0,0,0,0.06
2013-1-4,39.0,24.8,12.7,28.1,18.2,8.4,84,76,64,29.89,29.69,0,0,0,0.01
2013-1-5,43.5,34.6,27.5,33.4,26.9,20.0,85,74,61,29.79,29.59,0,0,0,0.00
2013-1-6,46.6,32.7,17.1,32.0,22.8,12.2,85,68,50,29.90,29.70,0,0,0,0.00
2013-1-7,51.4,40.4,31.8,31.0,25.8,21.4,67,57,46,29.69,29.48,0,0,0,0.00
2013-1-8,55.9,39.6,25.5,35.1,27.8,20.2,80,64,45,29.73,29.42,0,0,0,0.00
2013-1-9,55.0,34.8,21.2,38.4,27.0,17.4,89,75,51,29.94,29.72,0,0,0,0.00
2013-1-10,46.2,42.7,37.9,46.0,40.9,32.0,99,94,76,29.78,29.21,0,0,0,0.45
2013-1-11,56.5,48.4,35.1,47.7,42.9,24.2,99,84,35,29.37,28.98,0,0,17,0.00
2013-1-12,35.1,25.4,17.6,27.2,13.4,7.2,73,61,50,29.67,29.39,0,0,0,0.00
2013-1-13,27.3,17.9,10.8,9.0,5.9,3.0,70,60,45,29.86,29.65,0,0,0,0.00
2013-1-14,30.6,19.2,7.0,17.3,8.5,1.2,80,64,46,29.99,29.84,0,0,0,0.00
2013-1-15,39.6,24.2,13.3,23.4,13.2,7.2,80,64,44,29.86,29.66,0,0,0,0.00
2013-1-16,54.1,34.0,17.8,34.7,23.1,10.3,80,66,47,29.77,29.55,8,0,8,0.00
2013-1-17,56.1,36.9,19.6,39.0,25.5,15.3,89,66,41,30.00,29.78,5,0,5,0.00
2013-1-18,62.6,45.4,30.6,34.7,30.0,22.9,79,59,34,29.86,29.52,11,1,30,0.01
2013-1-19,61.0,41.5,25.7,33.7,26.4,16.4,82,59,32,29.78,29.49,0,0,0,0.00
2013-1-20,43.0,29.5,18.0,25.7,16.9,6.0,79,61,40,29.94,29.75,0,0,0,0.00
2013-1-21,39.2,23.6,12.4,20.6,11.2,5.7,78,61,39,29.94,29.77,0,0,0,0.00
2013-1-22,37.0,22.4,12.7,16.8,9.6,4.5,71,59,43,29.82,29.69,0,0,0,0.00
2013-1-23,48.9,29.6,13.1,31.9,17.6,7.1,81,63,42,29.90,29.66,0,0,0,0.00
2013-1-24,30.0,23.2,14.0,14.8,7.9,3.9,71,54,35,29.94,29.65,3,0,5,0.00
2013-1-25,52.0,32.8,16.0,27.0,17.7,7.4,76,56,39,29.77,29.65,0,0,0,0.00
2013-1-26,60.1,45.4,27.3,38.8,28.0,18.6,82,55,27,29.73,29.48,4,0,5,0.02
2013-1-27,65.8,49.4,35.6,58.9,45.2,31.7,99,86,64,29.48,29.18,0,0,1,0.00
2013-1-28,73.6,54.0,30.9,61.6,46.0,28.4,99,78,40,29.35,29.11,0,0,0,0.00
2013-1-29,64.4,39.3,32.5,61.1,35.6,31.1,95,87,70,29.24,29.08,0,0,0,0.00
2013-1-30,32.2,25.4,14.5,31.3,21.0,9.8,97,83,70,29.49,29.19,0,0,0,0.00
2013-1-31,27.3,19.1,7.0,23.2,12.0,0.2,86,74,57,29.95,29.43,0,0,0,0.00
2013-2-1,35.2,22.3,7.9,21.0,12.3,2.2,80,66,53,29.92,29.62,0,0,0,0.00
2013-2-2,53.4,39.9,24.8,39.6,29.5,19.7,86,68,52,29.76,29.62,0,0,0,0.00
2013-2-3,55.2,43.0,24.6,33.2,26.7,18.2,84,56,37,29.78,29.31,0,0,0,0.00
2013-2-4,49.1,38.8,26.1,33.0,27.7,20.0,81,65,51,29.50,29.31,0,0,0,0.00
2013-2-5,61.3,41.0,26.6,37.3,28.3,22.1,86,65,36,29.56,29.41,0,0,0,0.00
2013-2-6,61.0,49.1,35.1,52.5,40.7,25.8,98,74,53,29.57,29.32,0,0,0,0.00
2013-2-7,54.7,46.8,30.9,54.4,40.8,26.4,99,82,51,29.74,29.34,0,0,0,0.99
2013-2-8,41.7,33.2,26.4,36.9,30.1,23.7,97,88,80,29.84,29.61,0,0,0,0.00
2013-2-9,52.3,41.9,34.5,44.2,37.2,31.1,96,84,72,29.61,29.12,0,0,0,0.06
2013-2-10,47.7,40.9,32.7,46.0,32.9,24.3,99,75,55,29.53,28.94,0,0,0,0.01
2013-2-11,44.1,33.5,24.4,25.0,21.6,18.9,80,63,43,29.74,29.54,0,0,0,0.00
2013-2-12,44.2,33.3,24.4,32.4,25.2,19.2,89,74,53,29.69,29.49,0,0,0,0.00
2013-2-13,58.1,38.0,21.6,34.8,24.5,17.3,85,63,34,29.49,29.35,0,0,0,0.00
2013-2-14,50.0,38.9,28.6,35.2,26.7,17.1,82,63,46,29.82,29.41,12,0,12,0.00
2013-2-15,43.5,30.0,15.8,22.0,16.2,10.0,81,59,41,29.94,29.79,5,0,8,0.00
2013-2-16,53.4,31.6,12.7,27.3,17.5,6.1,78,59,36,29.88,29.50,2,0,3,0.00
2013-2-17,70.3,47.1,23.9,41.1,29.0,19.5,87,57,28,29.50,29.04,0,0,0,0.00
2013-2-18,52.9,43.0,22.1,31.3,24.6,11.0,65,50,38,29.65,28.96,0,0,0,0.00
2013-2-19,41.9,28.9,18.3,17.7,11.8,2.3,74,52,33,29.86,29.66,0,0,0,0.00
2013-2-20,28.6,24.7,21.9,23.8,14.0,1.9,86,66,41,29.79,29.56,0,0,0,0.00
2013-2-21,25.3,22.0,15.8,21.8,18.6,12.4,90,87,76,29.57,29.26,0,0,0,0.00
2013-2-22,30.2,16.5,4.1,23.2,10.8,-1.9,87,78,69,29.61,29.41,0,0,0,0.15
2013-2-23,39.4,19.6,1.0,29.9,13.1,-4.3,83,76,66,29.59,29.39,0,0,0,0.00
2013-2-24,41.7,30.9,12.2,29.8,23.6,6.8,85,74,62,29.47,29.35,0,0,0,0.00
2013-2-25,35.6,33.5,31.3,32.3,30.7,28.4,95,90,83,29.47,29.30,0,0,0,0.22
2013-2-26,36.1,31.5,26.2,29.3,26.5,22.9,91,82,70,29.45,29.28,0,0,0,0.07
2013-2-27,39.7,32.1,26.4,28.4,26.4,23.3,92,80,63,29.68,29.45,0,0,0,0.02
2013-2-28,37.6,32.9,27.0,28.9,26.3,22.3,84,77,68,29.75,29.67,0,0,0,0.00
2013-3-1,35.2,30.2,20.7,25.8,22.2,14.3,83,72,61,29.86,29.72,0,0,0,0.00
2013-3-2,41.9,27.7,12.4,29.8,20.2,8.0,85,74,59,29.88,29.62,0,0,0,0.00
2013-3-3,49.1,38.1,30.0,37.6,31.1,24.5,84,76,64,29.62,29.14,0,0,0,0.00
2013-3-4,47.3,37.6,26.8,39.2,32.8,24.3,93,83,71,29.59,29.11,0,0,0,0.04
2013-3-5,43.9,33.7,22.1,29.6,19.7,15.3,76,58,43,29.89,29.61,0,0,0,0.00
2013-3-6,49.5,32.3,17.4,28.5,20.6,12.1,83,64,41,29.94,29.66,0,0,0,0.00
2013-3-7,65.3,46.8,31.5,35.1,28.6,22.3,73,53,33,29.67,29.50,0,0,0,0.00
2013-3-8,66.4,52.6,38.5,51.1,40.6,27.3,81,65,54,29.57,29.35,0,0,0,0.00
2013-3-9,63.0,54.7,40.6,60.7,53.2,38.8,99,95,78,29.36,29.05,0,0,1,0.24
2013-3-10,40.1,32.0,27.3,38.0,30.0,22.5,98,92,80,29.55,29.15,0,0,0,0.02
2013-3-11,46.4,36.1,17.8,30.5,24.9,13.3,82,65,48,29.55,29.45,0,0,0,0.00
2013-3-12,52.2,41.8,26.1,34.5,24.7,16.2,83,54,35,29.87,29.52,0,0,0,0.00
2013-3-13,24.3,21.4,19.6,17.8,15.8,13.8,84,78,70,29.91,29.87,0,0,0,0.00
2013-3-22,30.7,30.1,29.3,27.6,26.8,25.9,88,87,87,29.46,29.42,0,0,0,0.00
2013-4-9,44.1,36.4,32.0,43.3,35.6,31.5,98,97,94,29.53,29.27,0,0,0,0.70
2013-4-10,32.5,31.0,29.3,32.0,30.4,28.5,99,97,96,29.59,29.37,0,0,0,0.00
2013-4-14,74.3,63.3,45.1,56.9,40.2,29.2,66,45,33,29.28,29.00,0,0,0,0.00
2013-4-15,57.0,48.2,41.0,40.6,34.0,28.2,84,60,44,29.51,29.25,0,0,0,0.02
2013-4-16,47.7,42.8,34.7,36.6,31.7,27.4,79,66,54,29.64,29.46,0,0,0,0.00
2013-4-17,46.0,42.5,39.0,45.5,41.2,36.7,99,95,78,29.55,29.25,8,2,11,0.58
2013-4-18,41.2,36.4,30.7,38.8,31.9,24.7,99,85,68,29.58,29.28,13,4,15,0.06
2013-4-19,62.4,43.4,27.5,42.8,31.7,23.3,85,66,43,29.60,29.52,0,0,0,0.00
2013-4-20,66.2,48.8,32.4,42.6,35.4,27.5,83,63,41,29.64,29.49,1,0,12,0.00
2013-4-21,72.3,60.4,50.0,49.2,43.9,39.4,72,57,43,29.63,29.54,0,0,0,0.00
2013-4-22,61.2,51.3,35.2,55.7,45.7,33.3,93,82,68,29.69,29.40,0,0,0,0.14
2013-4-23,35.6,33.1,30.4,33.3,30.1,27.9,97,89,75,29.77,29.62,0,0,0,0.19
2013-4-24,61.9,43.0,23.4,43.1,32.5,20.9,93,71,41,29.78,29.65,0,0,0,0.01
2013-4-25,73.2,52.3,29.5,47.9,38.2,26.1,90,63,34,29.79,29.55,0,0,0,0.00
2013-4-26,62.8,53.2,47.3,55.3,48.6,42.2,99,85,65,29.69,29.54,12,0,12,0.22
2013-4-27,75.0,56.1,49.8,61.8,53.1,49.6,99,91,60,29.69,29.51,0,0,0,0.01
2013-4-28,83.7,64.6,48.2,65.4,56.9,47.9,99,79,50,29.51,29.23,1,0,11,0.00
2013-4-29,88.9,71.3,49.1,69.2,60.1,47.5,99,71,50,29.29,29.06,0,0,1,0.00
2013-4-30,88.5,75.1,64.2,69.4,61.3,53.4,82,64,52,29.26,29.12,1,0,1,0.00
2013-5-1,69.1,49.6,36.5,57.2,45.8,36.0,99,88,66,29.85,29.25,0,0,1,0.63
2013-5-2,54.7,41.7,33.3,38.7,34.8,30.8,99,80,46,30.01,29.84,0,0,0,0.47
2013-5-3,60.1,45.5,30.7,37.7,31.3,25.4,88,62,36,29.90,29.53,0,0,0,0.00
2013-5-4,50.0,44.7,41.5,42.3,35.4,27.9,86,71,57,29.64,29.47,0,0,0,0.00
2013-5-5,67.8,52.0,43.5,56.6,46.7,40.0,93,83,66,29.70,29.59,0,0,0,0.00
2013-5-6,72.1,54.9,38.8,59.8,49.6,38.0,99,84,62,29.68,29.54,0,0,0,0.00
2013-5-7,78.8,63.0,47.1,63.3,55.0,44.9,99,78,56,29.59,29.42,0,0,1,0.05
2013-5-8,84.0,68.2,57.7,68.8,62.6,56.5,99,84,61,29.54,29.30,11,0,14,0.46
2013-5-9,73.6,61.5,52.5,67.9,59.2,52.2,99,93,72,29.54,29.38,0,0,0,0.13
2013-5-10,75.0,61.8,53.1,61.4,56.3,49.9,99,84,56,29.63,29.52,0,0,0,0.00
2013-5-11,70.9,59.5,47.8,52.3,46.6,36.3,99,68,37,29.80,29.60,0,0,0,0.00
2013-5-16,86.5,72.2,60.6,69.3,64.8,59.2,99,80,53,29.40,29.30,0,0,1,0.00
2013-5-17,91.8,73.1,55.8,72.8,65.7,55.5,99,81,52,29.43,29.32,0,0,0,0.00
2013-5-18,89.1,75.2,63.3,79.0,71.6,63.0,99,90,71,29.40,29.15,0,0,1,0.19
2013-5-19,87.1,70.2,57.2,78.1,66.1,56.9,99,88,67,29.28,29.01,1,0,1,0.27
2013-5-20,82.8,64.3,54.1,72.5,60.9,51.1,99,90,67,29.31,29.18,0,0,0,0.01
2013-5-21,77.7,63.5,52.0,59.5,53.9,49.6,93,73,51,29.36,29.25,0,0,0,0.00
2013-5-22,80.2,62.9,49.1,64.0,55.1,47.2,95,77,57,29.51,29.34,0,0,0,0.00
2013-5-23,75.4,61.6,50.5,62.4,55.9,50.0,99,83,61,29.69,29.52,0,0,0,0.00
2013-5-24,79.3,67.4,55.6,69.5,62.2,54.2,98,85,68,29.73,29.54,0,0,1,0.00
2013-5-25,88.3,77.9,69.1,72.3,70.2,68.8,99,80,59,29.59,29.44,1,0,1,0.00
2013-5-26,89.2,76.5,68.9,77.3,72.1,68.1,99,88,66,29.52,29.32,1,0,1,0.00
2013-5-27,88.9,77.6,69.3,77.8,73.5,68.3,99,88,68,29.31,29.05,1,0,1,0.00
2013-5-28,95.9,79.3,70.7,81.6,74.2,70.4,99,86,64,29.22,29.05,1,0,1,0.00
2013-5-29,87.3,74.1,63.1,76.1,70.2,61.5,99,88,66,29.18,29.01,1,0,1,1.49
2013-5-30,85.8,66.8,59.4,73.9,64.2,59.1,99,92,64,29.23,29.09,0,0,0,1.07
2013-5-31,90.5,74.9,65.7,73.6,67.2,60.2,99,80,48,29.31,29.14,0,0,0,0.00
2013-6-1,72.9,63.8,54.1,62.7,55.5,50.0,87,75,66,29.60,29.29,0,0,0,0.00
2013-6-2,75.6,61.0,48.7,58.4,52.5,47.4,97,76,52,29.68,29.51,0,0,0,0.00
2013-6-3,85.5,67.5,52.0,64.9,58.0,49.9,99,75,51,29.53,29.29,1,0,1,0.00
2013-6-4,95.0,75.9,65.1,77.2,69.9,64.0,99,84,55,29.46,29.24,0,0,0,0.01
2013-6-5,72.3,66.6,60.3,69.7,64.4,58.8,99,93,78,29.56,29.43,0,0,0,0.87
2013-6-6,80.6,65.7,52.9,65.1,59.3,52.6,99,82,54,29.57,29.47,0,0,0,0.00
2013-6-7,86.4,66.5,52.5,68.2,59.7,52.2,99,81,54,29.56,29.41,0,0,0,0.00
2013-6-8,87.1,71.0,61.9,69.4,63.4,58.1,99,79,55,29.41,29.20,1,0,1,0.44
2013-6-9,90.7,72.2,55.9,74.5,65.4,55.7,99,82,49,29.43,29.34,0,0,0,0.01
2013-6-10,101.3,78.3,57.0,80.7,69.5,56.7,99,78,53,29.42,29.25,0,0,1,0.00
2013-6-11,101.1,85.8,67.8,73.2,68.8,62.8,86,60,41,29.37,29.22,1,0,1,0.00
2013-6-12,101.8,85.5,73.2,83.9,74.6,64.6,87,72,49,29.53,29.23,0,0,1,0.00
2013-6-13,93.4,74.9,59.7,73.1,64.7,57.7,95,73,50,29.62,29.48,0,0,0,0.00
2013-6-23,99.5,89.3,80.8,76.4,69.9,67.4,71,55,48,29.39,29.29,0,0,0,0.00
2013-6-24,96.4,85.0,77.7,76.2,72.4,70.5,82,68,48,29.39,29.25,1,0,1,0.00
2013-6-25,102.9,87.8,77.5,78.6,74.2,70.7,84,67,46,29.38,29.14,1,0,1,0.00
2013-6-26,107.8,87.4,71.6,81.4,75.8,71.3,99,73,39,29.42,29.29,0,0,0,0.00
2013-6-27,110.5,86.8,75.0,86.2,78.3,69.3,99,79,44,29.53,29.31,0,0,1,0.00
2013-6-28,94.8,80.0,65.5,81.3,70.0,58.7,99,76,49,29.57,29.45,0,0,0,0.00
2013-6-29,88.5,75.5,61.9,68.8,61.9,55.1,97,66,44,29.53,29.42,0,0,0,0.00
2013-6-30,83.7,71.5,59.2,66.0,59.5,52.8,93,68,48,29.61,29.49,0,0,0,0.00
2013-7-1,85.3,69.5,54.9,63.6,56.4,51.1,93,67,42,29.71,29.62,0,0,0,0.00
2013-7-2,85.6,69.9,54.3,65.5,56.9,51.0,96,67,43,29.69,29.59,0,0,0,0.00
2013-7-3,96.4,75.6,59.7,64.6,57.6,52.3,84,58,33,29.64,29.47,0,0,0,0.00
2013-7-4,99.3,79.8,66.7,66.5,59.7,52.9,70,54,34,29.53,29.41,0,0,0,0.00
2013-7-5,97.3,83.3,69.6,68.6,64.0,58.8,79,55,40,29.45,29.34,0,0,1,0.00
2013-7-6,90.1,79.8,75.4,72.8,67.8,61.6,81,68,56,29.40,29.32,1,0,2,0.00
2013-7-7,101.3,87.3,76.3,75.2,70.2,66.9,78,60,42,29.45,29.37,1,0,1,0.00
2013-7-8,104.5,87.8,75.0,77.4,72.5,69.6,88,64,40,29.54,29.42,0,0,1,0.00
2013-7-9,109.9,88.5,73.4,83.1,75.3,69.5,99,68,43,29.54,29.33,0,0,0,0.00
2013-7-10,93.7,81.4,69.4,82.8,74.9,66.5,99,83,61,29.57,29.49,0,0,0,0.00
2013-7-11,92.7,77.2,68.2,82.1,72.1,66.6,99,85,69,29.65,29.45,0,0,0,0.00
2013-7-12,102.9,85.7,71.2,82.5,74.7,67.5,90,72,51,29.49,29.39,0,0,0,0.00
2013-7-13,101.5,88.4,77.7,83.1,77.8,74.2,91,73,56,29.48,29.38,0,0,1,0.00
2013-7-14,92.7,77.8,70.5,82.8,73.8,67.4,99,89,64,29.62,29.43,0,0,0,0.00
2013-7-15,87.8,72.2,62.8,80.3,70.2,62.5,99,94,62,29.70,29.62,0,0,0,0.00
2013-7-16,96.1,78.2,63.3,78.7,71.0,63.0,99,82,54,29.79,29.70,0,0,0,0.00
2013-7-17,95.4,80.3,69.1,82.7,75.2,68.8,99,86,64,29.84,29.70,0,0,0,0.00
2013-7-18,97.7,82.7,70.3,81.2,74.7,70.0,99,80,51,29.72,29.50,0,0,1,0.00
2013-7-19,103.1,84.6,71.1,81.3,75.1,70.1,99,76,51,29.54,29.38,0,0,0,0.00
2013-7-20,101.1,79.4,70.9,84.0,75.1,70.6,99,89,50,29.48,29.33,0,0,0,0.00
2013-7-21,94.1,77.6,70.5,86.4,75.9,70.2,99,95,73,29.44,29.32,0,0,0,0.00
2013-7-22,96.3,81.2,72.5,88.8,77.7,72.2,99,90,68,29.38,29.30,0,0,0,0.00
2013-7-23,97.0,77.5,71.2,81.8,73.7,70.4,99,90,61,29.51,29.34,0,0,0,0.00
2013-7-24,89.4,76.3,64.9,77.7,70.6,64.7,99,85,58,29.60,29.47,0,0,2,0.00
2013-7-25,81.7,72.7,68.4,81.1,72.1,67.4,99,98,93,29.59,29.52,0,0,1,0.00
2013-7-26,86.7,73.7,65.8,81.0,70.6,63.8,99,91,69,29.63,29.52,4,0,8,0.00
2013-7-27,73.2,65.0,59.5,67.6,62.4,59.3,99,92,75,29.69,29.52,0,0,0,0.00
2013-7-28,65.5,62.3,57.7,65.2,62.0,57.5,99,99,95,29.58,29.51,0,0,0,0.00
2013-7-29,72.9,68.0,62.4,72.6,67.7,62.1,99,99,99,29.53,29.42,0,0,1,0.00
2013-7-30,80.1,73.0,68.5,79.8,72.7,68.2,99,99,99,29.63,29.49,0,0,0,0.00
2013-7-31,90.7,75.9,64.4,83.1,73.7,64.1,99,94,72,29.68,29.58,0,0,0,0.00
2013-8-1,93.6,78.8,66.7,84.4,74.2,66.4,99,87,63,29.65,29.42,0,0,0,0.00
2013-8-2,94.3,80.8,66.7,87.0,78.9,66.4,99,94,80,29.46,29.36,0,0,0,0.00
2013-8-3,88.0,77.9,70.2,85.0,77.1,69.9,99,98,88,29.60,29.44,0,0,0,0.00
2013-8-4,86.4,76.3,70.3,86.0,76.0,70.0,99,99,96,29.62,29.50,0,0,0,0.00
2013-8-5,87.8,78.0,72.3,84.9,77.5,72.0,99,99,89,29.52,29.37,0,0,0,0.00
2013-8-6,97.2,84.9,68.5,87.7,81.6,68.2,99,91,75,29.39,29.31,0,0,0,0.00
2013-8-7,88.3,77.3,70.3,85.7,76.8,70.0,99,98,90,29.49,29.34,1,0,2,0.01
2013-8-8,76.6,70.8,68.4,76.3,70.3,68.1,99,98,93,29.54,29.40,0,0,0,0.00
2013-8-9,79.0,71.2,66.9,75.8,69.3,63.8,99,94,84,29.66,29.51,0,0,0,0.00
2013-8-10,92.1,73.1,59.7,80.6,69.7,59.4,99,90,63,29.72,29.59,0,0,1,0.00
2013-8-11,90.9,77.7,66.6,80.3,74.4,66.3,99,91,72,29.66,29.53,0,0,0,0.00
2013-8-12,88.5,76.5,66.6,84.5,75.0,66.3,99,95,80,29.58,29.48,0,0,3,0.00
2013-8-13,80.8,72.9,65.7,78.9,72.4,65.4,99,98,89,29.66,29.55,0,0,0,3.00
2013-8-14,85.8,70.2,59.0,76.2,67.3,58.7,99,92,69,29.70,29.56,0,0,0,0.00
2013-8-15,85.6,69.8,62.4,79.3,68.2,62.1,99,95,79,29.61,29.44,0,0,1,0.00
2013-8-16,82.2,69.9,61.7,78.8,68.4,61.4,99,95,81,29.66,29.56,2,0,5,0.00
2013-8-17,82.6,70.7,61.5,75.8,67.4,61.2,99,90,72,29.69,29.59,0,0,0,0.00
2013-8-18,87.4,72.5,60.4,75.8,68.0,60.2,99,88,66,29.66,29.54,0,0,0,0.00
2013-8-19,90.9,76.8,66.4,79.6,72.6,66.1,99,88,66,29.60,29.47,1,0,1,0.00
2013-8-20,93.9,79.4,68.7,79.7,73.8,68.4,99,85,63,29.55,29.47,0,0,0,0.00
2013-8-21,95.9,80.5,69.6,80.4,73.7,69.3,99,82,60,29.55,29.48,0,0,0,0.00
2013-8-22,94.5,80.2,69.6,80.0,73.8,69.0,99,83,58,29.60,29.49,0,0,0,0.00
2013-8-23,92.8,81.2,71.6,82.6,77.3,71.3,99,89,72,29.57,29.46,0,0,0,0.00
2013-8-24,96.8,84.2,75.0,83.0,78.2,74.7,99,84,62,29.60,29.52,0,0,1,0.00
2013-8-25,98.1,84.6,74.1,84.2,77.8,73.8,99,82,60,29.67,29.58,0,0,0,0.00
2013-8-26,98.1,84.7,73.8,82.3,76.4,72.1,99,79,57,29.65,29.54,0,0,1,0.00
2013-8-27,97.2,83.4,73.0,79.2,73.0,67.5,98,74,49,29.56,29.49,0,0,1,0.00
2013-8-28,93.9,80.6,69.4,83.3,75.7,69.0,99,86,64,29.56,29.49,0,0,0,0.00
2013-8-29,101.1,85.4,73.8,84.0,76.4,70.0,99,78,50,29.53,29.44,0,0,0,0.00
2013-8-30,103.8,85.2,71.1,86.5,74.9,68.1,95,74,48,29.48,29.35,0,0,0,0.00
2013-8-31,100.9,83.8,72.7,87.9,78.7,70.1,99,86,66,29.42,29.29,0,0,0,0.00
2013-9-1,88.5,78.8,64.8,83.2,73.8,62.0,99,86,63,29.53,29.29,0,0,0,0.00
2013-9-2,85.5,70.7,56.7,72.5,65.3,56.4,99,85,62,29.62,29.52,0,0,0,0.00
2013-9-3,91.8,73.5,57.6,76.2,66.4,57.3,99,81,55,29.63,29.52,0,0,0,0.00
2013-9-4,92.7,75.1,61.0,74.5,66.7,60.7,99,78,55,29.68,29.57,0,0,0,0.00
2013-9-5,95.5,78.7,64.8,78.4,70.3,63.9,99,78,56,29.69,29.57,0,0,0,0.00
2013-9-6,99.9,83.5,71.4,79.8,72.1,67.5,91,71,49,29.62,29.45,0,0,0,0.00
2013-9-7,103.5,86.3,73.6,81.3,73.3,69.2,89,68,45,29.49,29.39,0,0,0,0.00
2013-9-8,101.3,84.7,72.1,80.9,71.7,67.5,88,68,47,29.44,29.34,0,0,0,0.00
2013-9-9,97.5,83.6,70.0,75.6,67.2,60.9,85,61,41,29.44,29.36,0,0,1,0.00
2013-9-10,98.4,84.0,72.1,76.2,68.3,63.2,79,61,48,29.57,29.43,1,0,1,0.00
2013-9-11,79.2,74.7,70.7,64.0,63.2,62.7,79,69,61,29.61,29.57,0,0,0,0.00
2013-10-10,84.9,72.8,61.9,65.0,60.8,55.5,82,68,52,29.47,29.26,0,0,1,0.00
2013-10-11,83.1,70.5,58.5,64.7,54.5,42.9,89,62,32,29.44,29.20,1,0,1,0.00
2013-10-12,70.0,55.3,41.0,48.2,42.4,36.7,96,66,40,29.78,29.45,0,0,0,0.00
2013-10-13,74.1,55.9,35.4,46.1,40.3,32.5,94,62,33,29.87,29.70,0,0,0,0.00
2013-10-14,63.5,62.1,60.6,50.2,46.1,42.5,69,57,48,29.70,29.58,0,0,0,0.00
2013-10-17,67.6,52.2,37.4,50.9,41.5,35.5,96,71,44,29.61,29.46,0,0,0,0.00
2013-10-18,44.1,37.7,33.4,38.2,35.4,32.3,99,92,77,29.73,29.59,0,0,0,0.01
2013-10-19,64.8,46.3,31.1,50.6,39.5,30.9,99,81,50,29.62,29.40,0,0,0,0.00
2013-10-20,71.6,53.3,41.5,51.9,43.8,37.2,86,72,49,29.53,29.32,0,0,0,0.00
2013-10-21,63.0,49.3,36.1,44.9,39.8,33.5,94,72,49,29.67,29.52,0,0,0,0.00
2013-10-22,68.0,54.1,42.3,50.0,43.2,36.2,89,69,50,29.65,29.47,0,0,0,0.00
2013-10-23,66.6,49.0,32.5,48.6,40.4,31.1,99,75,52,29.70,29.51,0,0,0,0.00
2013-10-24,51.8,42.5,32.7,41.2,34.6,26.9,98,75,51,29.94,29.70,0,0,0,0.00
2013-10-25,59.2,45.3,29.7,40.5,32.3,26.3,89,65,38,29.94,29.63,0,0,0,0.00
2013-10-26,62.6,50.2,33.1,46.1,37.3,25.2,94,65,37,29.73,29.58,0,0,1,0.00
2013-10-27,71.6,48.9,30.0,42.6,33.5,24.2,83,60,36,29.70,29.40,0,0,1,0.00
2013-10-28,66.0,56.3,46.6,59.8,49.8,33.5,99,80,53,29.56,29.44,0,0,1,0.00
2013-10-31,61.9,51.8,45.0,46.9,43.2,41.1,87,74,57,29.25,29.14,0,0,0,0.00
2013-11-1,61.5,49.5,38.3,48.9,41.4,36.7,98,76,52,29.63,29.25,0,0,0,0.00
2013-11-2,59.7,46.2,34.3,42.9,35.6,31.2,89,69,44,29.79,29.61,0,0,0,0.00
2013-11-3,63.1,52.7,44.2,43.7,38.7,33.5,69,60,48,29.61,29.25,1,0,1,0.00
2013-11-4,62.4,54.8,50.0,49.2,45.1,42.1,86,71,59,29.56,29.25,0,0,1,0.00
2013-11-11,29.1,28.2,27.7,20.9,19.6,18.8,71,70,68,30.19,30.13,0,0,0,0.00
2013-11-12,34.3,25.7,17.4,19.1,14.4,11.6,82,63,44,30.38,30.14,0,0,0,0.00
2013-11-13,53.6,38.0,21.9,31.8,22.9,14.0,74,57,40,30.14,29.59,0,0,1,0.00
2013-11-14,57.7,45.3,37.4,35.2,28.2,19.6,73,53,42,29.59,29.42,0,0,0,0.00
2013-11-15,60.6,47.0,29.7,49.6,38.7,26.5,93,75,54,29.43,29.12,1,0,2,0.00
2013-11-16,75.2,62.0,53.4,56.9,49.8,37.1,92,68,44,29.11,28.84,0,0,1,0.00
2013-11-17,66.4,53.9,32.7,50.1,31.4,21.4,73,47,22,29.66,28.84,0,0,1,0.00
2013-11-18,63.7,41.9,25.5,40.1,26.1,20.4,87,59,31,29.80,29.61,0,0,0,0.00
2013-11-19,40.3,38.3,37.2,29.3,26.0,23.9,65,62,56,29.71,29.60,0,0,0,0.00
2013-12-11,25.3,19.5,11.3,16.0,4.4,-3.4,75,53,36,30.16,29.97,0,0,0,0.00
2013-12-12,49.8,30.9,14.2,24.3,14.2,0.1,70,52,38,30.03,29.59,0,0,0,0.00
2013-12-13,51.1,38.7,28.6,37.7,30.0,20.3,83,72,59,29.57,29.26,0,0,1,0.00
2013-12-14,35.4,25.8,17.1,24.9,17.6,9.5,83,72,55,29.76,29.50,0,0,0,0.00
2013-12-15,61.0,39.5,18.9,34.6,24.2,13.5,83,59,34,29.70,29.50,0,0,0,0.00
2013-12-16,61.5,42.4,25.0,32.3,23.3,13.7,66,50,35,29.66,29.51,0,0,0,0.00
2013-12-17,53.4,34.3,21.2,33.3,20.7,12.0,87,61,37,29.86,29.66,0,0,0,0.00
2013-12-18,67.6,49.9,30.0,37.1,30.3,17.2,62,50,34,29.68,29.24,0,0,0,0.00
2013-12-19,63.1,48.8,22.8,51.0,39.8,17.6,90,72,58,29.34,29.11,0,0,0,0.00
2013-12-20,22.8,19.5,15.4,17.2,13.3,11.4,89,77,66,29.53,29.35,0,0,0,8.73
2013-12-21,22.5,21.8,21.0,14.5,13.6,12.6,72,70,68,29.41,29.29,0,0,0,0.00
2013-12-24,30.2,25.0,19.6,29.7,22.7,16.6,98,91,84,29.84,29.60,1,0,1,0.00
2013-12-25,44.1,26.5,8.6,36.7,22.7,6.1,98,86,73,29.87,29.75,0,0,0,0.01
2013-12-26,43.3,29.3,18.1,31.8,23.3,14.5,87,79,63,29.83,29.69,1,0,1,0.00
2013-12-27,47.3,31.1,15.8,34.7,25.4,13.2,91,80,59,29.82,29.66,0,0,0,0.00
2013-12-28,44.8,36.5,28.9,34.6,30.7,25.6,90,80,66,29.65,29.34,0,0,0,0.00
2013-12-29,18.3,13.2,4.6,7.5,0.6,-3.4,70,57,45,29.89,29.78,0,0,0,0.00
2013-12-30,34.9,19.6,3.6,25.1,10.8,-3.6,77,68,58,29.77,29.67,0,0,0,0.00
2013-12-31,45.7,37.8,19.4,32.5,28.9,16.2,90,71,59,29.69,29.49,1,0,1,0.00
2014-1-1,34.3,18.8,9.0,27.5,14.3,3.3,88,82,73,29.90,29.47,0,0,0,0.00
2014-1-2,31.1,15.1,2.1,22.4,9.1,-3.0,85,77,63,29.93,29.84,0,0,0,0.00